Fargo, ND

12:58 PM CDT on July 25, 2017 (GMT -0500)
Hector International

Weather History for KFAR - October, 2012

Change the Weather History Date:

Friday, October 26, 2012

  Actual Average Record
Temperature  
Mean Temperature 37 °F 41 °F  
Max Temperature 42 °F 51 °F 79 °F (1989)
Min Temperature 32 °F 31 °F -4 °F (1919)
Degree Days  
Heating Degree Days 28 24  
Month to date heating degree days 513 478  
Since 1 July heating degree days 743 748  
Cooling Degree Days 0 0  
Month to date cooling degree days 0 0  
Year to date cooling degree days 795 548  
Moisture  
Dew Point 20 °F    
Average Humidity 49    
Maximum Humidity 64    
Minimum Humidity 34    
Precipitation  
Precipitation T in 0.06 in 1.21 in (2010)
Month to date precipitation 2.00 1.91  
Year to date precipitation 13.34 20.54  
Snow  
Snow 0.00 in 0.00 in 1.40 in (2008)
Month to date snowfall 1.4 0.4  
Since 1 July snowfall 1.4 0.4  
Since 1 September snowfall 1.4 0.4  
Snow Depth 0.00 in    
Sea Level Pressure  
Sea Level Pressure 30.29 in    
Wind  
Wind Speed 16 mph (West)    
Max Wind Speed 30 mph    
Max Gust Speed 38 mph    
Visibility 10 miles    
Events      
T = Trace of Precipitation, MM = Missing Value Source: NWS Daily Summary

Daily Weather History Graph

Daily Weather History Graph

Search for Another Location

Airport or City:

Trip Planner

Search our weather history database for the weather conditions in past years. The results will help you decide how hot, cold, wet, or windy it might be!

Date:

Astronomy

Oct. 26, 2012 Rise Set
Actual Time 8:01 AM CDT 6:19 PM CDT
Civil Twilight 7:30 AM CDT 6:51 PM CDT
Nautical Twilight 6:54 AM CDT 7:26 PM CDT
Astronomical Twilight 6:19 AM CDT 8:01 PM CDT
Moon 4:43 PM CDT (10/26) 4:49 AM CDT (10/26)
Length of Visible Light 11h 20m
Length of Day
10h 18m
Waxing Gibbous, 91% of the Moon is Illuminated
Oct 26
Waxing Gibbous
Oct 29
Full
Nov 6
Last Quarter
Nov 13
New
Nov 20
First Quarter

Hourly Weather History & Observations

Time (CDT) Temp. Windchill Dew Point Humidity Pressure Visibility Wind Dir Wind Speed Gust Speed Precip Events Conditions
12:53 AM 36.0 °F 26.3 °F 25.0 °F 64% 30.19 in 10.0 mi West 16.1 mph - N/A   Overcast
1:53 AM 36.0 °F 25.6 °F 25.0 °F 64% 30.20 in 10.0 mi West 18.4 mph - N/A   Overcast
2:53 AM 36.0 °F 26.7 °F 25.0 °F 64% 30.22 in 10.0 mi West 15.0 mph - N/A   Overcast
3:53 AM 36.0 °F 26.3 °F 21.0 °F 55% 30.23 in 10.0 mi WNW 16.1 mph - N/A   Overcast
4:53 AM 35.1 °F 26.9 °F 21.9 °F 59% 30.25 in 10.0 mi West 11.5 mph - N/A   Overcast
5:53 AM 35.1 °F 25.2 °F 21.9 °F 59% 30.27 in 10.0 mi West 16.1 mph - N/A   Overcast
6:53 AM 35.1 °F 22.7 °F 18.0 °F 50% 30.29 in 10.0 mi WNW 25.3 mph 32.2 mph N/A   Overcast
7:53 AM 35.1 °F 25.9 °F 19.9 °F 54% 30.29 in 10.0 mi West 13.8 mph - N/A   Overcast
8:53 AM 35.1 °F 25.5 °F 19.9 °F 54% 30.32 in 10.0 mi West 15.0 mph 24.2 mph N/A   Overcast
9:53 AM 35.6 °F 23.4 °F 17.6 °F 48% 30.29 in 10.0 mi WNW 25.3 mph 31.1 mph N/A   Clear
10:53 AM 37.0 °F 26.2 °F 18.0 °F 46% 30.33 in 10.0 mi WNW 21.9 mph 31.1 mph N/A   Clear
11:53 AM 37.0 °F 24.9 °F 17.1 °F 44% 30.34 in 10.0 mi WNW 27.6 mph 34.5 mph 0.00 in   Partly Cloudy
12:53 PM 37.9 °F 27.3 °F 16.0 °F 41% 30.33 in 10.0 mi WNW 21.9 mph 32.2 mph 0.00 in   Partly Cloudy
1:53 PM 41.0 °F 31.6 °F 17.1 °F 38% 30.32 in 10.0 mi WNW 20.7 mph 38.0 mph N/A   Scattered Clouds
2:53 PM 41.0 °F 31.1 °F 16.0 °F 36% 30.31 in 10.0 mi NW 23.0 mph - N/A   Mostly Cloudy
3:53 PM 37.9 °F 28.9 °F 15.1 °F 39% 30.32 in 10.0 mi WNW 16.1 mph 25.3 mph N/A   Overcast
4:53 PM 37.9 °F 28.5 °F 12.9 °F 36% 30.32 in 10.0 mi WNW 17.3 mph 25.3 mph N/A   Overcast
5:53 PM 37.0 °F 30.4 °F 16.0 °F 42% 30.32 in 10.0 mi WNW 9.2 mph - N/A   Overcast
6:53 PM 35.1 °F 31.0 °F 19.0 °F 52% 30.33 in 10.0 mi WSW 4.6 mph - N/A   Overcast
7:53 PM 35.1 °F 27.9 °F 19.0 °F 52% 30.33 in 10.0 mi West 9.2 mph - N/A   Overcast
8:53 PM 35.1 °F 27.9 °F 21.0 °F 57% 30.33 in 10.0 mi WSW 9.2 mph - N/A   Overcast
9:53 PM 34.0 °F 25.5 °F 21.9 °F 61% 30.32 in 10.0 mi West 11.5 mph - N/A   Overcast
10:53 PM 34.0 °F 27.2 °F 23.0 °F 64% 30.32 in 10.0 mi WSW 8.1 mph - N/A   Overcast
11:53 PM 33.1 °F 26.1 °F 23.0 °F 66% 30.32 in 10.0 mi WSW 8.1 mph - N/A   Overcast